Regional Weather Roundup
Issued by NWS

Home | Current Version | Previous Version | Text Only | Print | Product List | Glossary Off
Versions: 1 2 3 4 5 6 7 8 9 10 11 12 13 14 15 16 17 18 19 20 21 22 23 24 25 26 27

000
ASUS45 KCYS 201310
RWRWY

WYOMING REGIONAL WEATHER ROUNDUP
NATIONAL WEATHER SERVICE CHEYENNE WY
700 AM MDT SUN AUG 20 2017

NOTE:  "FAIR" INDICATES FEW OR NO CLOUDS BELOW 12,000 FEET
WITH NO SIGNIFICANT WEATHER AND/OR OBSTRUCTIONS TO VISIBILITY.

WYZ001-201400-
YELLOWSTONE NATIONAL PARK

CITY           SKY/WX    TMP DP  RH WIND       PRES   REMARKS
LK YELLOWSTONE   N/A     35  32  88 CALM      30.26R
W YELLOWSTONE  NOT AVBL

$$
WYZ002>013-054>058-071-098>099-201400-
NORTHERN WYOMING

CITY           SKY/WX    TMP DP  RH WIND       PRES   REMARKS
JACKSON        FAIR      41  31  67 NE6       30.18R
CODY           FAIR      52  36  54 S6        30.11R
GREYBULL       FAIR      57  37  47 NW6       30.02R
WORLAND        FAIR      52  36  54 S7        30.05R
SHERIDAN       FAIR      48  41  76 S5        30.06F
BUFFALO        FAIR      54  37  52 SW7       30.12R
GILLETTE       FAIR      51  44  77 W3        30.08R
HULETT         FAIR      59  46  63 E8        30.10R
NEWCASTLE      FAIR      55  37  50 NE3       30.08R

$$
WYZ014>020-022>026-101>103-201400-
CENTRAL WYOMING

CITY           SKY/WX    TMP DP  RH WIND       PRES   REMARKS
BIG PINEY      FAIR      38  28  67 E6        30.23S WCI  33
PINEDALE       FAIR      36  32  87 NW6       30.25S WCI  31
DUBOIS         FAIR      43  28  56 NW6       30.20S
LANDER           N/A    N/A N/A N/A MISG      30.12R
RIVERTON       FAIR      54  30  40 CALM      30.10R
CASPER         FAIR      49  37  63 NW6       30.13R
DOUGLAS        FAIR      49  42  77 S3        30.13R

$$
WYZ021-027>030-104>119-201400-
SOUTHERN WYOMING

CITY           SKY/WX    TMP DP  RH WIND       PRES   REMARKS
EVANSTON       FAIR      58  36  43 SE5       30.23R
FORT BRIDGER   FAIR      58  34  40 W9        30.25R
ROCK SPRINGS   FAIR      58  33  39 SE5       30.21R
RAWLINS        FAIR      52  33  48 CALM      30.22R
SARATOGA       PTSUNNY   48  34  57 E6        30.24S
LARAMIE        FAIR      47  32  56 S5        30.24R
CHEYENNE       FAIR      61  30  31 W9        30.14R
TORRINGTON     FAIR      54  43  66 NW6       30.06R
PINE BLUFFS    FAIR      54  37  54 NW5       30.09R

$$




USA.gov is the U.S. government's official web portal to all federal, state and local government web resources and services.